Weather in Chernaya Rechka

Russia / Ryazan Oblast     53°51′31″N   40°44′39″E
temp.,
°C
wind,
m/s
gust,
m/s
humid.,
%
clouds,
%
prec.,
mm/h
press.,
hPa
HPBL,
m
16 october, sat
sat1600:00+5sw512695 0.0 1021277
03:00+4ssw5127099 0.0 1021290
06:00+6ssw61266100 0.0 1021369
09:00+6ssw6136384 0.0 1020441
12:00+11ssw710465 0.0 1019850
15:00+12ssw6104110 0.0 10171192
18:00+9ssw5124999 0.0 1017347
21:00+9ssw5135475 0.0 1016367
17 october, sun
sun1700:00+8sw410615 0.0 1016245
03:00+6sw377297 0.0 1016184
06:00+6wsw338290 0.0 101757
09:00+8wsw357663 0.0 1017276
12:00+11wsw4552100 0.0 1016854
15:00+11wsw464765 0.0 10151067
18:00+8wsw356163 0.0 101592
21:00+7sw387054 0.0 1015145
18 october, mon
mon1800:00+5wsw388283 0.0 1014158
03:00+5wsw3684100 0.0 1014144
06:00+4sw378689 0.0 1013156
09:00+6sw48685 0.0 1013294
12:00+10wsw694744 0.0 10121134
15:00+10wsw6957100 0.0 10111314
18:00+9w4864100 0.1 1011898
21:00+7wnw4773100 0.1 1012852
19 october, tue
tue1900:00+6nw3481100 0.1 1012405
03:00+5wnw238495 0.1 1012146
06:00+3wnw2586100 0.0 1013147
09:00+4wnw46745 0.0 1013354
12:00+7wnw566065 0.0 10131158
15:00+5nw676699 0.1 10141180
18:00+4nw5762100 0.0 10161264
21:00+3nw5862100 0.1 10171136
20 october, wed
wed2000:00+2wnw488198 0.1 1018336
03:00+1nw5108739 0.1 1019380
06:000nw5893100 0.0 1021479
09:00+2nw5773100 0.0 1023877
12:00+3nw358293 0.1 1023671
15:00+4wnw4560100 0.3 10231031
18:00+2wsw116499 0.0 102410
21:00+1sw366947 0.0 1023144